Вернуться в каталог

STARLINK-34382

АктивенСвязьVLEO
NORAD 64667·PAYLOAD·🇺🇸 United States

Запущен Jun 28, 2025 с Cape Canaveral Space Force Station

Loading…

Ближайшие Пролёты (ближайшие 24 часа)

TLE

СвежийSource: CelesTrak SupGP

Эпоха: Sep 15, 2026, 02:30 UTC

1 64667C 25139D   26258.10465278  .00055877  00000+0  16504-2 0  2582
2 64667  53.1590 324.7604 0001240  89.1979 111.2285 15.34371952    11

Отслеживайте STARLINK-34382 в реальном времени с AllMySat

Download on the App Store